GW2897 Weather Reports


Display with metric or nautical units.
time (UTC)temp
F
wind
direction
speed
MPH
gust
MPH
rain 1hr
in
rain 24hr
in
rain mn
in
humidity
%
barometer
mb
20260905055400 78 0 0.0 0.0 0.00 0.00 0.00 90 1014.0
20260905054459 78 0 0.0 0.0 0.00 0.00 0.00 90 1014.1
20260905053621 78 0 0.0 0.0 0.00 0.00 0.00 90 1014.2
20260905052721 79 221 0.0 1.0 0.00 0.00 0.00 89 1014.1
20260905051800 79 95 0.0 1.0 0.00 0.00 0.00 89 1014.2
20260905050900 79 142 0.0 1.0 0.00 0.00 0.00 88 1014.1
20260905050000 79 79 0.0 1.0 0.00 0.00 0.00 88 1014.2
20260905045400 80 81 0.0 3.0 0.00 0.00 0.00 88 1014.1
20260905044502 80 29 0.0 1.0 0.00 0.00 0.00 87 1014.2
20260905043600 80 129 0.0 2.0 0.00 0.00 0.00 87 1014.1
20260905042700 80 309 0.0 2.0 0.00 0.00 0.00 87 1014.3
20260905041800 80 144 0.0 3.0 0.00 0.00 0.00 86 1014.5
20260905040900 80 68 0.0 2.0 0.00 0.00 0.00 86 1014.4
20260905040000 80 135 0.0 1.0 0.00 0.00 0.00 86 1014.4
20260905035400 80 112 0.0 2.0 0.00 0.00 0.00 85 1014.3
20260905034500 80 126 0.0 2.0 0.00 0.00 0.00 85 1014.3
20260905033600 80 337 0.0 2.0 0.00 0.00 0.00 85 1014.4
20260905032700 80 90 0.0 2.0 0.00 0.00 0.00 84 1014.6
20260905031821 80 93 0.0 1.0 0.00 0.00 0.00 84 1014.6
20260905030900 81 140 0.0 1.0 0.00 0.00 0.00 82 1014.7
20260905030000 81 126 0.0 2.0 0.00 0.00 0.00 82 1014.8
20260905025400 81 120 0.0 1.0 0.00 0.00 0.00 82 1014.7
20260905024500 81 115 1.0 5.0 0.00 0.00 0.00 81 1014.8
20260905023601 79 104 0.0 4.0 0.00 0.00 0.00 83 1014.7
20260905022721 80 122 0.0 1.0 0.00 0.00 0.00 82 1014.5
20260905021822 80 127 0.0 1.0 0.00 0.00 0.00 83 1014.5
20260905020901 80 0 0.0 0.0 0.00 0.00 0.00 82 1014.5
20260905020001 80 0 0.0 0.0 0.00 0.00 0.00 82 1014.4
20260905015400 80 162 0.0 1.0 0.00 0.00 0.00 81 1014.4
20260905014500 80 0 0.0 0.0 0.00 0.00 0.00 81 1014.5
20260905013600 80 148 0.0 1.0 0.00 0.00 0.00 81 1014.6
20260905012721 81 141 0.0 1.0 0.00 0.00 0.00 81 1014.6
20260905011800 81 0 0.0 0.0 0.00 0.00 0.00 80 1014.5
20260905010901 81 0 0.0 0.0 0.00 0.00 0.00 80 1014.5
20260905010000 82 0 0.0 0.0 0.00 0.00 0.00 80 1014.3
20260905005401 82 0 0.0 0.0 0.00 0.00 0.00 80 1014.3
20260905004501 82 0 0.0 0.0 0.00 0.00 0.00 79 1014.2
20260905003601 83 0 0.0 0.0 0.00 0.00 0.00 78 1014.1
20260905002721 84 0 0.0 0.0 0.00 0.00 0.00 77 1013.9
20260905001801 85 0 0.0 0.0 0.00 0.00 0.00 75 1014.0
20260905000922 86 0 0.0 0.0 0.00 0.00 0.00 73 1013.9
20260905000001 87 0 0.0 0.0 0.00 0.00 0.00 72 1013.8
20260904235421 87 141 0.0 1.0 0.00 0.00 0.00 70 1013.8
20260904234500 89 141 0.0 1.0 0.00 0.00 0.00 68 1013.6
20260904233601 90 0 0.0 0.0 0.00 0.00 0.00 67 1013.5
20260904232701 92 141 0.0 1.0 0.00 0.00 0.00 64 1013.5
20260904231801 94 133 0.0 2.0 0.00 0.00 0.00 61 1013.6
20260904230901 95 115 0.0 2.0 0.00 0.00 0.00 59 1013.5
20260904230001 95 119 1.0 6.0 0.00 0.00 0.00 58 1013.6
20260904225401 95 120 1.0 6.0 0.00 0.00 0.00 59 1013.5
20260904224500 95 125 1.0 5.0 0.00 0.00 0.00 57 1013.5
20260904223601 96 126 2.0 6.0 0.00 0.00 0.00 58 1013.4
20260904222701 96 129 2.0 6.0 0.00 0.00 0.00 57 1013.4
20260904221801 96 134 2.0 6.0 0.00 0.00 0.00 56 1013.5
20260904220901 97 121 1.0 6.0 0.00 0.00 0.00 56 1013.4
20260904220001 96 144 2.0 6.0 0.00 0.00 0.00 56 1013.5
20260904215401 97 123 2.0 7.0 0.00 0.00 0.00 56 1013.4
20260904214501 97 123 2.0 7.0 0.00 0.00 0.00 56 1013.4
20260904213601 97 123 2.0 5.0 0.00 0.00 0.00 56 1013.3
20260904212701 97 178 2.0 6.0 0.00 0.00 0.00 57 1013.4
20260904211801 97 112 1.0 3.0 0.00 0.00 0.00 57 1013.6
20260904210901 96 121 1.0 6.0 0.00 0.00 0.00 57 1013.5
20260904210022 98 130 2.0 8.0 0.00 0.00 0.00 55 1013.5
20260904205401 98 156 1.0 4.0 0.00 0.00 0.00 55 1013.6
20260904204501 96 140 1.0 7.0 0.00 0.00 0.00 56 1013.7
20260904203622 98 67 1.0 4.0 0.00 0.00 0.00 55 1013.8
20260904202701 98 121 3.0 8.0 0.00 0.00 0.00 57 1013.9
20260904201802 98 131 2.0 6.0 0.00 0.00 0.00 54 1013.9
20260904200901 97 96 2.0 6.0 0.00 0.00 0.00 54 1014.2
20260904200001 98 89 3.0 6.0 0.00 0.00 0.00 53 1014.3
20260904195402 99 115 2.0 6.0 0.00 0.00 0.00 53 1014.4
20260904194501 99 117 2.0 6.0 0.00 0.00 0.00 55 1014.4
20260904193601 99 109 2.0 7.0 0.00 0.00 0.00 53 1014.8
20260904192701 99 124 2.0 5.0 0.00 0.00 0.00 53 1015.0
20260904191801 98 100 3.0 7.0 0.00 0.00 0.00 54 1015.0
20260904190901 99 131 1.0 6.0 0.00 0.00 0.00 55 1015.1
20260904190001 97 83 2.0 6.0 0.00 0.00 0.00 55 1015.2
20260904185401 98 72 1.0 6.0 0.00 0.00 0.00 56 1015.2
20260904184502 97 122 2.0 5.0 0.00 0.00 0.00 59 1015.5
20260904183601 98 96 1.0 5.0 0.00 0.00 0.00 57 1015.5
20260904182723 98 120 2.0 6.0 0.00 0.00 0.00 57 1015.5
20260904181802 97 126 3.0 10.0 0.00 0.00 0.00 58 1015.8
20260904180902 98 140 2.0 9.0 0.00 0.00 0.00 57 1015.8
20260904180002 97 120 3.0 8.0 0.00 0.00 0.00 61 1015.9
20260904175401 96 110 3.0 8.0 0.00 0.00 0.00 59 1015.9
20260904174501 96 124 2.0 7.0 0.00 0.00 0.00 62 1016.0
20260904173601 96 126 1.0 7.0 0.00 0.00 0.00 59 1016.1
20260904172702 96 125 2.0 6.0 0.00 0.00 0.00 62 1016.2
20260904171801 94 324 1.0 5.0 0.00 0.00 0.00 63 1016.2
20260904170923 94 349 0.0 4.0 0.00 0.00 0.00 65 1016.4
20260904170023 93 44 1.0 4.0 0.00 0.00 0.00 64 1016.5
20260904165423 92 127 1.0 5.0 0.00 0.00 0.00 66 1016.6
20260904164502 93 141 2.0 5.0 0.00 0.00 0.00 65 1016.6
20260904163602 93 120 2.0 6.0 0.00 0.00 0.00 66 1016.6
20260904162702 93 81 2.0 6.0 0.00 0.00 0.00 67 1016.9
20260904161823 91 198 2.0 6.0 0.00 0.00 0.00 70 1017.0
20260904160923 90 248 2.0 6.0 0.00 0.00 0.00 71 1017.1
20260904160001 89 284 3.0 7.0 0.00 0.00 0.00 73 1017.1
20260904155423 89 272 3.0 7.0 0.00 0.00 0.00 73 1017.2
20260904154502 90 296 3.0 7.0 0.00 0.00 0.00 73 1017.3
20260904153602 90 239 1.0 5.0 0.00 0.00 0.00 72 1017.4
20260904152702 90 209 2.0 5.0 0.00 0.00 0.00 72 1017.5
20260904151802 90 181 1.0 6.0 0.00 0.00 0.00 74 1017.4
20260904150902 89 144 1.0 6.0 0.00 0.00 0.00 75 1017.5
20260904150002 88 286 1.0 5.0 0.00 0.00 0.00 75 1017.4
20260904145402 88 280 1.0 5.0 0.00 0.00 0.00 76 1017.4
20260904144502 88 239 0.0 3.0 0.00 0.00 0.00 77 1017.4
20260904143602 86 57 0.0 3.0 0.00 0.00 0.00 79 1017.3
20260904142702 85 246 1.0 3.0 0.00 0.00 0.00 79 1017.3
20260904141802 84 346 1.0 3.0 0.00 0.00 0.00 81 1017.2
20260904140923 84 240 1.0 3.0 0.00 0.00 0.00 82 1017.2
20260904140023 83 190 2.0 4.0 0.00 0.00 0.00 84 1017.2
20260904135402 82 176 1.0 4.0 0.00 0.00 0.00 84 1017.3
20260904134503 81 275 1.0 5.0 0.00 0.00 0.00 86 1017.3
20260904133602 81 230 1.0 4.0 0.00 0.00 0.00 88 1017.2
20260904132702 80 265 1.0 4.0 0.00 0.00 0.00 89 1017.3
20260904131802 80 155 1.0 7.0 0.00 0.00 0.00 91 1017.4
20260904130902 79 230 1.0 5.0 0.00 0.00 0.00 91 1017.4
20260904130002 78 218 1.0 5.0 0.00 0.00 0.00 93 1017.4
20260904125402 78 133 0.0 3.0 0.00 0.00 0.00 94 1017.4
20260904124502 77 134 0.0 3.0 0.00 0.00 0.00 96 1017.4
20260904123603 76 113 0.0 2.0 0.00 0.00 0.00 97 1017.5
20260904122702 75 0 0.0 0.0 0.00 0.00 0.00 97 1017.5
20260904121824 74 1 0.0 6.0 0.00 0.00 0.00 97 1017.5
20260904120902 74 102 0.0 1.0 0.00 0.00 0.00 97 1017.4
20260904120002 73 0 0.0 0.0 0.00 0.00 0.00 97 1017.4
20260904115402 73 0 0.0 0.0 0.00 0.00 0.00 97 1017.4
20260904114503 72 0 0.0 0.0 0.00 0.00 0.00 97 1017.3
20260904113603 72 0 0.0 0.0 0.00 0.00 0.00 96 1017.4
20260904112703 72 0 0.0 0.0 0.00 0.00 0.00 96 1017.4
20260904111802 72 0 0.0 0.0 0.00 0.00 0.00 96 1017.3
20260904110903 72 0 0.0 0.0 0.00 0.00 0.00 96 1017.2
20260904110024 72 0 0.0 0.0 0.00 0.00 0.00 96 1017.2
20260904105403 71 0 0.0 0.0 0.00 0.00 0.00 96 1017.1
20260904104503 72 0 0.0 0.0 0.00 0.00 0.00 96 1017.1
20260904103603 72 0 0.0 0.0 0.00 0.00 0.00 96 1017.0
20260904102703 72 0 0.0 0.0 0.00 0.00 0.00 96 1017.0
20260904101803 72 0 0.0 0.0 0.00 0.00 0.00 95 1016.9
20260904100903 72 0 0.0 0.0 0.00 0.00 0.00 95 1016.7
20260904100003 72 0 0.0 0.0 0.00 0.00 0.00 95 1016.7
20260904095403 72 0 0.0 0.0 0.00 0.00 0.00 95 1016.6
20260904094503 72 0 0.0 0.0 0.00 0.00 0.00 95 1016.6
20260904093603 72 0 0.0 0.0 0.00 0.00 0.00 95 1016.5
20260904092703 72 0 0.0 0.0 0.00 0.00 0.00 95 1016.2
20260904091803 72 0 0.0 0.0 0.00 0.00 0.00 95 1016.2
20260904090924 72 0 0.0 0.0 0.00 0.00 0.00 94 1016.2
20260904090003 73 0 0.0 0.0 0.00 0.00 0.00 95 1016.2
20260904085403 73 0 0.0 0.0 0.00 0.00 0.00 95 1016.1
20260904084524 72 0 0.0 0.0 0.00 0.00 0.00 94 1016.0
20260904083624 73 0 0.0 0.0 0.00 0.00 0.00 94 1015.9
20260904082724 73 0 0.0 0.0 0.00 0.00 0.00 94 1015.8
20260904081803 73 0 0.0 0.0 0.00 0.00 0.00 93 1015.7
20260904080903 73 0 0.0 0.0 0.00 0.00 0.00 93 1015.6
20260904080004 73 0 0.0 0.0 0.00 0.00 0.00 93 1015.7
20260904075424 73 0 0.0 0.0 0.00 0.00 0.00 93 1015.7
20260904074524 73 0 0.0 0.0 0.00 0.00 0.00 92 1015.8
20260904073603 74 0 0.0 0.0 0.00 0.00 0.00 92 1015.8
20260904072703 74 0 0.0 0.0 0.00 0.00 0.00 92 1015.8
20260904071824 74 0 0.0 0.0 0.00 0.00 0.00 91 1015.8
20260904070903 74 0 0.0 0.0 0.00 0.00 0.00 90 1016.0
20260904070024 75 0 0.0 0.0 0.00 0.00 0.00 90 1015.8
20260904065403 75 0 0.0 0.0 0.00 0.00 0.00 90 1015.8
20260904064503 75 0 0.0 0.0 0.00 0.00 0.00 89 1015.9
20260904063600 76 0 0.0 0.0 0.00 0.00 0.00 89 1015.9
20260904062700 76 0 0.0 0.0 0.00 0.00 0.00 89 1016.0
20260904061800 76 104 0.0 1.0 0.00 0.00 0.00 89 1016.1
20260904060900 76 0 0.0 0.0 0.00 0.00 0.00 88 1016.3
20260904060000 76 0 0.0 0.0 0.00 0.00 0.00 87 1016.3